Date String (YYYY-MM-DD hh:mm:ss) UTC,Instrument flags,Ambient pressure (hPa),Sample flow (lpm),Bypass flow (lpm),Sample temperature (°C),Ambient temperature (°C),ASC tube jacket temperature (°C),LED temperature (°C),Box temperature (°C),Sample RH (%),Span deviation,Mass concentration (μg/m³),Mass concentration (μg/m³),Mass concentration (μg/m³)
DateTimeUTC,F1_M11,P_M11,Q1_M11,Q2_M11,T1_M11,T2_M11,T3_M11,T4_M11,T5_M11,U1_M11,ZSPAN_M11,X2_M11,X0_M11,X1_M11
2023-04-30 22:00:00,,0829.3,5.00,0.00,29.8,28.6,00.0,38.1,31.3,14.3,0004.6,0007.61,0019.78,0005.76
2023-04-30 22:01:00,,0829.2,5.00,0.00,29.8,28.5,00.0,38.1,31.3,14.3,0004.0,0007.53,0021.20,0005.69
2023-04-30 22:02:00,,0829.3,5.00,0.00,29.8,28.5,00.0,38.2,31.3,14.4,0004.1,0007.41,0021.58,0005.60
2023-04-30 22:03:00,,0829.2,4.99,0.00,29.8,28.5,00.0,38.2,31.3,14.1,0004.3,0007.27,0021.34,0005.52
2023-04-30 22:04:00,,0829.1,5.00,0.00,29.8,28.5,00.0,38.2,31.3,14.2,0001.4,0007.23,0021.22,0005.45
2023-04-30 22:05:00,,0829.1,5.00,0.00,29.8,28.5,00.0,38.2,31.3,14.5,0000.0,0007.23,0021.07,0005.36
2023-04-30 22:06:00,,0829.2,5.01,0.00,29.8,28.6,00.0,38.2,31.3,14.4,0000.0,0007.15,0020.79,0005.25
2023-04-30 22:07:00,,0829.2,4.99,0.00,29.8,28.6,00.0,38.2,31.3,14.2,0000.0,0007.08,0020.13,0005.17
2023-04-30 22:08:00,,0829.2,5.00,0.00,29.8,28.6,00.0,38.2,31.3,14.3,0000.0,0006.99,0020.00,0005.09
2023-04-30 22:09:00,,0829.1,5.01,0.00,29.8,28.6,00.0,38.2,31.4,14.4,0000.0,0006.84,0019.75,0005.01
2023-04-30 22:10:00,,0829.1,5.00,0.00,29.8,28.6,00.0,38.2,31.4,14.2,0000.0,0006.67,0019.44,0004.93
2023-04-30 22:11:00,,0829.1,4.99,0.00,29.8,28.6,00.0,38.2,31.4,14.4,0000.0,0006.72,0020.01,0004.89
2023-04-30 22:12:00,,0829.2,4.99,0.00,29.8,28.6,00.0,38.2,31.4,14.5,0000.0,0006.72,0018.11,0004.87
2023-04-30 22:13:00,,0829.2,5.00,0.00,29.8,28.6,00.0,38.2,31.4,14.2,0000.0,0006.76,0017.64,0004.87
2023-04-30 22:14:00,,0829.2,5.02,0.00,29.8,28.6,00.0,38.3,31.3,14.1,0000.0,0006.78,0017.18,0004.88
2023-04-30 22:15:00,,0829.2,5.00,0.00,29.8,28.6,00.0,38.3,31.4,14.1,0000.0,0006.79,0017.02,0004.89
2023-04-30 22:16:00,,0829.2,4.99,0.00,29.8,28.6,00.0,38.3,31.4,14.5,0000.0,0006.73,0017.35,0004.89
2023-04-30 22:17:00,,0829.2,4.99,0.00,29.8,28.6,00.0,38.3,31.4,14.2,0000.0,0006.70,0016.71,0004.90
2023-04-30 22:18:00,,0829.2,5.00,0.00,29.9,28.6,00.0,38.3,31.4,14.2,0000.0,0006.80,0016.80,0004.92
2023-04-30 22:19:00,,0829.1,5.00,0.00,29.9,28.6,00.0,38.3,31.4,14.0,0000.0,0006.84,0016.78,0004.94
2023-04-30 22:20:00,,0829.1,5.01,0.00,29.9,28.7,00.0,38.3,31.4,14.1,0000.0,0006.86,0016.05,0004.96
2023-04-30 22:21:00,,0829.1,5.01,0.00,29.9,28.8,00.0,38.3,31.4,14.2,0000.0,0006.95,0016.36,0004.98
2023-04-30 22:22:00,,0829.1,4.99,0.00,30.0,28.8,00.0,38.3,31.5,14.0,0000.0,0006.93,0015.10,0004.98
2023-04-30 22:23:00,,0829.1,4.99,0.00,30.0,28.8,00.0,38.3,31.5,13.9,0000.0,0006.93,0014.66,0004.99
2023-04-30 22:24:00,,0829.1,5.00,0.00,30.0,28.9,00.0,38.4,31.5,13.8,0000.6,0006.88,0014.47,0004.99
2023-04-30 22:25:00,,0829.1,5.02,0.00,30.0,28.9,00.0,38.4,31.5,13.9,0003.7,0006.83,0014.57,0004.95
2023-04-30 22:26:00,,0829.1,5.00,0.00,30.0,28.9,00.0,38.4,31.5,14.1,0003.3,0006.85,0015.10,0004.92
2023-04-30 22:27:00,,0829.1,5.00,0.00,30.0,28.9,00.0,38.4,31.6,14.0,0003.1,0006.81,0014.88,0004.88
2023-04-30 22:28:00,,0829.1,5.00,0.00,30.0,28.9,00.0,38.4,31.6,13.6,0001.4,0006.80,0015.32,0004.86
2023-04-30 22:29:00,,0829.1,5.00,0.00,30.1,28.9,00.0,38.4,31.6,13.7,0000.0,0006.78,0015.63,0004.82
2023-04-30 22:30:00,,0829.1,5.00,0.00,30.1,28.9,00.0,38.4,31.6,13.6,0000.0,0006.65,0015.71,0004.78
2023-04-30 22:31:00,,0829.0,5.00,0.00,30.1,29.0,00.0,38.5,31.6,13.7,0000.0,0006.59,0016.39,0004.75
2023-04-30 22:32:00,,0829.0,5.00,0.00,30.1,29.0,00.0,38.5,31.6,13.8,0000.0,0006.49,0017.68,0004.70
2023-04-30 22:33:00,,0829.0,5.00,0.00,30.1,29.0,00.0,38.5,31.6,13.8,0000.0,0006.41,0018.14,0004.67
2023-04-30 22:34:00,,0828.9,5.00,0.00,30.1,29.0,00.0,38.5,31.7,13.6,0000.0,0006.34,0019.84,0004.61
2023-04-30 22:35:00,,0829.0,5.00,0.00,30.2,29.0,00.0,38.5,31.7,13.6,0000.0,0006.33,0020.89,0004.56
2023-04-30 22:36:00,,0829.0,5.01,0.00,30.2,29.0,00.0,38.5,31.7,13.6,0000.0,0006.37,0021.33,0004.53
2023-04-30 22:37:00,,0829.0,5.00,0.00,30.2,29.0,00.0,38.5,31.7,13.7,0000.0,0006.32,0021.41,0004.50
2023-04-30 22:38:00,,0829.0,4.99,0.00,30.2,29.0,00.0,38.6,31.7,13.5,0000.0,0006.28,0021.07,0004.48
2023-04-30 22:39:00,,0829.0,4.99,0.00,30.2,29.0,00.0,38.6,31.7,13.6,0000.0,0006.29,0020.59,0004.46
2023-04-30 22:40:00,,0829.0,5.00,0.00,30.2,29.1,00.0,38.6,31.7,13.8,0000.0,0006.26,0020.47,0004.43
2023-04-30 22:41:00,,0829.0,5.00,0.00,30.2,29.1,00.0,38.6,31.7,13.8,0000.0,0006.28,0020.54,0004.39
2023-04-30 22:42:00,,0828.9,5.01,0.00,30.2,29.1,00.0,38.6,31.7,13.9,0000.0,0006.33,0020.08,0004.33
2023-04-30 22:43:00,,0829.0,5.00,0.00,30.2,29.1,00.0,38.6,31.8,13.7,0000.0,0006.33,0018.69,0004.29
2023-04-30 22:44:00,,0829.0,5.01,0.00,30.2,29.1,00.0,38.6,31.7,13.7,0000.0,0006.31,0018.30,0004.27
2023-04-30 22:45:00,,0829.0,5.01,0.00,30.2,29.1,00.0,38.6,31.8,13.6,0000.0,0006.32,0017.21,0004.27
2023-04-30 22:46:00,,0829.0,5.01,0.00,30.3,29.1,00.0,38.7,31.7,13.5,0000.0,0006.34,0017.02,0004.27
2023-04-30 22:47:00,,0829.0,4.99,0.00,30.3,29.2,00.0,38.7,31.8,13.5,0000.0,0006.31,0017.77,0004.28
2023-04-30 22:48:00,,0829.0,5.00,0.00,30.3,29.2,00.0,38.7,31.8,13.6,0000.0,0006.33,0017.08,0004.27
2023-04-30 22:49:00,,0829.0,5.00,0.00,30.3,29.2,00.0,38.7,31.8,13.5,0000.0,0006.35,0017.13,0004.29
2023-04-30 22:50:00,,0828.9,5.00,0.00,30.3,29.2,00.0,38.7,31.8,13.8,0000.0,0006.31,0016.76,0004.28
2023-04-30 22:51:00,,0829.0,5.00,0.00,30.4,29.3,00.0,38.7,31.9,13.7,0000.0,0006.27,0017.53,0004.27
2023-04-30 22:52:00,,0829.0,4.99,0.00,30.4,29.2,00.0,38.7,31.9,13.8,0000.0,0006.25,0017.72,0004.26
2023-04-30 22:53:00,,0829.0,5.01,0.00,30.4,29.2,00.0,38.8,31.9,13.7,0000.0,0006.23,0017.93,0004.26
2023-04-30 22:54:00,,0829.0,5.01,0.00,30.4,29.2,00.0,38.8,31.9,13.6,0000.0,0006.25,0017.93,0004.28
2023-04-30 22:55:00,,0828.9,5.00,0.00,30.4,29.2,00.0,38.8,31.8,13.8,0000.0,0006.28,0018.11,0004.28
2023-04-30 22:56:00,,0828.9,5.00,0.00,30.4,29.1,00.0,38.8,31.8,13.6,0000.0,0006.29,0018.84,0004.27
2023-04-30 22:57:00,,0828.9,5.00,0.00,30.4,29.1,00.0,38.8,31.8,13.5,0000.0,0006.20,0018.45,0004.24
2023-04-30 22:58:00,,0829.0,4.99,0.00,30.4,29.1,00.0,38.8,31.9,13.8,0000.0,0006.20,0018.09,0004.22
2023-04-30 22:59:00,,0829.0,5.00,0.00,30.4,29.1,00.0,38.8,31.9,13.5,0000.0,0006.12,0018.98,0004.20
